[[[{"header":{"parameterUnit":"kt","parameterCategory":2,"dx":1,"dy":1,"la1":30.253999710083008,"la2":30.299108505249023,"lo1":-89.0895004272461,"lo2":-89.04439544677734,"nx":28,"ny":28,"refTime":"2022-10-29T21:00:00:Z","depth":0,"parameterNumber":1,"parameterNumberName":"U-component_of_WINDS"},"data":[7.8972,7.9183,7.9222,7.9483,7.9563,7.9748,7.9828,7.9935,8.0031,8.0259,8.0398,8.0462,8.0576,8.0754,8.0908,8.0934,8.0997,8.1042,8.1064,8.0823,8.0793,8.0763,8.0715,8.1055,8.1055,8.1308,8.1311,8.1312,7.879,7.887,7.902,7.9191,7.932,7.93,7.9436,7.9546,7.9713,7.9834,7.9972,8.0178,8.0346,8.0448,8.0617,8.072,8.0721,8.0763,8.0756,8.0775,8.0518,8.0466,8.0758,8.0758,8.0758,8.0758,8.0758,8.0758,7.8471,7.8596,7.8722,7.8885,7.8982,7.9098,7.9225,7.93,7.9448,7.9627,7.9648,7.984,7.997,8.0195,8.0282,8.0434,8.0396,8.0455,8.047,8.0484,8.0494,8.0123,8.0465,8.0464,8.0464,8.0463,8.0463,0,7.8249,7.8273,7.8419,7.8577,7.8698,7.8825,7.8949,7.9029,7.9097,7.9218,7.9396,7.9505,7.9723,7.9897,8.0066,8.0145,8.0139,8.0144,8.0185,8.0177,8.0148,8.0166,7.9746,8.0134,8.0131,8.0129,8.0128,8.0127,7.793,7.8072,7.8223,7.8321,7.8398,7.8555,7.8657,7.8706,7.8813,7.8974,7.9084,7.9258,7.94,7.9681,7.9769,7.9934,7.9933,8.0076,7.9958,7.9944,7.9936,7.9927,7.9942,8.0098,8.0102,8.0105,8.0107,0,7.7747,7.7811,7.8043,7.818,7.8219,7.8366,7.8485,7.8614,7.8672,7.8858,7.8905,7.8998,7.9174,7.924,7.9455,7.9484,7.9731,7.9726,7.9686,7.9688,7.9823,7.981,8.0251,8.0312,7.9959,7.9963,7.9965,0,7.75,7.7685,7.777,7.7901,7.8108,7.8152,7.8357,7.8427,7.8539,7.8686,7.8688,7.8826,7.8889,7.9038,7.9082,7.9295,7.9336,7.9371,7.9381,7.9372,7.9367,7.9431,7.9414,7.9396,7.9394,7.9392,7.939,0,7.7207,7.7469,7.7682,7.7753,7.7919,7.8019,7.8093,7.8218,7.8319,7.846,7.8526,7.8688,7.8778,7.8904,7.8958,7.8876,7.9221,7.9119,7.9257,7.9256,7.9331,7.9326,7.9699,7.9387,7.9387,7.9386,7.9385,0,7.7017,7.7156,7.7457,7.7594,7.7661,7.7804,7.7964,7.81,7.8233,7.8268,7.838,7.839,7.8581,7.8475,7.874,7.8616,7.8705,7.8756,7.8767,7.8789,7.8668,7.887,7.9218,7.9257,7.8808,7.8804,7.8799,0,7.6664,7.6984,7.7023,7.7309,7.7466,7.7456,7.7615,7.7731,7.7792,7.7935,7.8003,7.8168,7.8102,7.8163,7.8285,7.8363,7.8524,7.8343,7.8554,7.8561,7.8518,7.8839,7.8874,7.9134,7.8739,7.8745,7.875,0,7.6398,7.6596,7.6644,7.6726,7.6885,7.7017,7.7199,7.737,7.7463,7.7594,7.775,7.7983,7.7943,7.8043,7.8069,7.8193,7.8416,7.8134,7.8138,7.8183,7.8714,7.8746,7.8789,7.8406,7.8414,7.842,7.8702,0,7.6099,7.6267,7.6399,7.6579,7.6691,7.6873,7.694,7.7048,7.706,7.7119,7.7349,7.7464,7.7641,7.7707,7.7721,7.7984,7.795,7.7906,7.7808,7.8018,7.8113,7.8151,7.7661,7.7659,7.7657,7.7655,0,0,7.5745,7.5987,7.6024,7.6201,7.6297,7.6284,7.6473,7.6566,7.6755,7.6823,7.6768,7.7113,7.7209,7.7482,7.7552,7.7624,7.7678,7.7602,7.7917,7.7946,7.7973,7.8073,7.8112,7.7651,7.765,7.765,7.7649,0,7.5649,7.5741,7.5926,7.6024,7.6168,7.6221,7.6266,7.6408,7.6455,7.6679,7.6668,7.6814,7.7089,7.7192,7.7281,7.757,7.7555,7.762,7.7752,7.7894,7.7925,7.7954,7.8058,7.8095,7.7644,7.7644,7.7645,0,7.5399,7.5501,7.5597,7.5814,7.5909,7.6072,7.5983,7.6159,7.628,7.626,7.6483,7.6556,7.67,7.6949,7.7063,7.7017,7.7438,7.7318,7.7333,7.7347,7.7488,7.7526,7.756,7.7114,7.7112,7.711,0,0,7.5307,7.5463,7.5588,7.5798,7.5859,7.594,7.6033,7.6054,7.6181,7.6232,7.6326,7.6452,7.6612,7.6717,7.6871,7.7134,7.7169,7.7249,7.7275,7.7295,7.732,7.7466,7.7503,7.7102,7.7101,7.7101,0,0,7.5264,7.5416,7.5404,7.5656,7.5776,7.5915,7.6042,7.6032,7.6176,7.6163,7.6209,7.6245,7.6479,7.6552,7.6435,7.6837,7.6738,7.6768,7.6781,7.6813,7.6838,7.6816,7.6363,0,0,0,0,0,7.5198,7.5397,7.5384,7.5436,7.5711,7.5921,7.5957,7.5998,7.5926,7.6026,7.6103,7.6079,7.6498,7.6396,7.6449,7.6578,7.6997,7.7016,7.7033,7.7112,7.7146,7.7174,0,0,0,0,0,0,7.5219,7.5282,7.5379,7.5526,7.5588,7.5915,7.5803,7.5819,7.5917,7.5909,7.6065,7.6084,7.6124,7.6372,7.6419,7.6541,7.6347,7.7005,7.702,7.7034,7.7124,7.7151,7.7174,0,0,0,0,0,7.5236,7.5286,7.5717,7.5524,7.5578,7.5679,7.5795,7.5809,7.5885,7.6004,7.6022,7.5907,7.6127,7.6169,7.64,7.6519,7.6316,7.6333,7.7015,7.7027,7.7038,7.7137,0,0,0,0,0,0,7.5248,7.5301,7.5728,7.5747,7.5451,7.5662,7.5696,7.5799,7.5974,7.5994,7.5847,7.5838,7.6131,7.6163,7.6195,7.6509,7.6289,7.6307,7.6318,7.7024,7.7034,7.7042,0,0,0,0,0,0,7.5274,7.5317,7.5738,7.5644,7.5651,7.5646,7.5676,7.5879,7.5977,7.5808,7.5806,7.5841,7.6083,7.616,7.6185,7.65,7.6269,7.6286,7.6298,7.6305,7.7032,7.704,0,0,0,0,0,0,7.5293,7.5329,7.5639,7.5645,7.5652,7.5858,7.5826,7.6107,7.5893,7.5801,7.5875,7.5867,7.6081,7.6107,7.6178,7.6482,7.6496,7.627,7.6281,7.629,7.6295,0,0,0,0,0,0,0,7.5308,7.5053,7.5621,7.5647,7.5652,7.5914,7.5919,7.5924,7.5891,7.5884,7.5877,7.587,7.6174,7.6192,7.6211,7.6468,0,0,7.6268,7.6276,0,0,0,0,0,0,0,0,7.5038,7.5049,7.5621,7.5625,7.5629,7.5915,7.5919,7.5923,7.589,7.5884,7.5878,7.5873,7.6179,7.6194,7.6209,0,0,0,0,0,0,0,0,0,0,0,0,0,0,0,7.5622,7.5625,0,7.5915,7.5919,7.5922,7.5889,7.5884,7.588,7.5875,7.6183,7.6195,7.6208,0,0,0,0,0,0,0,0,0,0,0,0,0,0,0,0,0,0,0,0,0,0,0,0,0,0,0,0,0,0,0,0,0,0,0,0,0,0,0,0,0,0,0,0,0,0,0,0,0,0,0,0,0,0,0,0,0,0,0,0,0,0,0,0,0,0,0,0,0]}],[{"header":{"parameterUnit":"kt","parameterCategory":2,"dx":1,"dy":1,"la1":30.253999710083008,"la2":30.299108505249023,"lo1":-89.0895004272461,"lo2":-89.04439544677734,"nx":28,"ny":28,"refTime":"2022-10-29T21:00:00:Z","depth":0,"parameterNumber":2,"parameterNumberName":"V-component_of_WINDS"},"data":[-1.8372,-1.8396,-1.8384,-1.8406,-1.8399,-1.8412,-1.8413,-1.8413,-1.841,-1.8425,-1.8431,-1.8421,-1.8413,-1.8418,-1.8425,-1.842,-1.8424,-1.8443,-1.8435,-1.8362,-1.8351,-1.8341,-1.8334,-1.8444,-1.8444,-1.8511,-1.8512,-1.8513,-1.8324,-1.8317,-1.8325,-1.8323,-1.833,-1.8305,-1.8302,-1.831,-1.8322,-1.8318,-1.8323,-1.8335,-1.8343,-1.8328,-1.8333,-1.8345,-1.8334,-1.8348,-1.8347,-1.8346,-1.8268,-1.8261,-1.8357,-1.8357,-1.8357,-1.8357,-1.8357,-1.8357,-1.8233,-1.8248,-1.8239,-1.8247,-1.8242,-1.8242,-1.8254,-1.824,-1.8247,-1.8251,-1.8233,-1.8247,-1.824,-1.824,-1.8236,-1.8247,-1.8229,-1.824,-1.8243,-1.8246,-1.8252,-1.8159,-1.8247,-1.8247,-1.8247,-1.8246,-1.8246,0,-1.8162,-1.815,-1.8155,-1.8158,-1.8162,-1.8163,-1.8161,-1.8168,-1.8137,-1.8144,-1.8154,-1.8157,-1.8164,-1.8171,-1.8173,-1.8166,-1.814,-1.8135,-1.8143,-1.8152,-1.816,-1.8157,-1.8031,-1.8132,-1.8131,-1.8131,-1.813,-1.813,-1.8069,-1.8087,-1.807,-1.8076,-1.8071,-1.8081,-1.8084,-1.8055,-1.8059,-1.8053,-1.8067,-1.8074,-1.8078,-1.8095,-1.8078,-1.8083,-1.807,-1.8111,-1.807,-1.8079,-1.8071,-1.807,-1.8073,-1.8119,-1.812,-1.8121,-1.8122,0,-1.8018,-1.7995,-1.8018,-1.7999,-1.7995,-1.8016,-1.8,-1.8013,-1.7997,-1.8014,-1.8016,-1.7991,-1.8001,-1.7976,-1.7982,-1.7969,-1.8005,-1.7992,-1.8008,-1.8004,-1.8039,-1.8036,-1.8152,-1.8166,-1.8051,-1.8052,-1.8053,0,-1.793,-1.7954,-1.7918,-1.7933,-1.796,-1.7928,-1.7956,-1.7945,-1.7936,-1.7949,-1.7914,-1.7927,-1.7893,-1.7903,-1.7884,-1.7909,-1.7909,-1.7901,-1.7895,-1.7904,-1.7905,-1.7905,-1.79,-1.7882,-1.7881,-1.7881,-1.788,0,-1.7852,-1.7861,-1.7884,-1.7882,-1.7863,-1.7875,-1.7868,-1.7858,-1.786,-1.786,-1.7862,-1.7864,-1.7865,-1.7868,-1.7843,-1.7817,-1.7872,-1.7831,-1.7864,-1.7865,-1.7876,-1.7876,-1.7986,-1.7879,-1.7879,-1.7879,-1.7879,0,-1.7776,-1.7776,-1.7813,-1.7796,-1.7799,-1.7815,-1.7814,-1.7821,-1.7813,-1.7801,-1.7801,-1.7774,-1.7792,-1.7754,-1.7779,-1.7752,-1.7756,-1.7749,-1.7751,-1.775,-1.7707,-1.7772,-1.788,-1.789,-1.7752,-1.7751,-1.775,0,-1.7695,-1.7725,-1.7697,-1.7733,-1.7743,-1.7703,-1.772,-1.7712,-1.7698,-1.7705,-1.7689,-1.7698,-1.7663,-1.7662,-1.7678,-1.7662,-1.7697,-1.7656,-1.7668,-1.7669,-1.7672,-1.777,-1.7792,-1.7859,-1.7736,-1.7737,-1.7738,0,-1.7627,-1.7602,-1.761,-1.7606,-1.759,-1.7598,-1.7617,-1.7618,-1.7624,-1.7619,-1.7634,-1.7645,-1.7619,-1.7618,-1.7595,-1.7613,-1.7672,-1.7583,-1.7582,-1.76,-1.7726,-1.7747,-1.7759,-1.7654,-1.7655,-1.7657,-1.7727,0,-1.7519,-1.7529,-1.755,-1.7541,-1.7543,-1.7563,-1.7535,-1.7541,-1.7519,-1.7502,-1.7524,-1.751,-1.751,-1.7516,-1.7494,-1.7543,-1.753,-1.7503,-1.7462,-1.7526,-1.7549,-1.7558,-1.7431,-1.7429,-1.7428,-1.7427,0,0,-1.7446,-1.746,-1.7428,-1.7444,-1.7443,-1.7399,-1.7423,-1.7418,-1.7407,-1.7408,-1.7385,-1.7397,-1.7387,-1.7416,-1.7434,-1.7434,-1.744,-1.7417,-1.7496,-1.7504,-1.7511,-1.7535,-1.7545,-1.7425,-1.7425,-1.7424,-1.7424,0,-1.7399,-1.7388,-1.7412,-1.7404,-1.7392,-1.7372,-1.7378,-1.7358,-1.7348,-1.7368,-1.733,-1.734,-1.7349,-1.7343,-1.7341,-1.7414,-1.7385,-1.7416,-1.7465,-1.7485,-1.7495,-1.7503,-1.7529,-1.7539,-1.7421,-1.7421,-1.7421,0,-1.7328,-1.7312,-1.732,-1.7315,-1.7306,-1.7317,-1.7267,-1.7281,-1.7288,-1.7238,-1.7258,-1.7246,-1.7235,-1.7266,-1.7278,-1.7258,-1.7337,-1.7306,-1.7312,-1.7313,-1.7331,-1.7342,-1.7352,-1.7221,-1.722,-1.7219,0,0,-1.7292,-1.73,-1.7273,-1.7303,-1.73,-1.727,-1.7273,-1.725,-1.724,-1.7236,-1.7219,-1.7211,-1.7217,-1.7221,-1.7224,-1.7262,-1.7257,-1.7282,-1.7292,-1.73,-1.7304,-1.7325,-1.7336,-1.7217,-1.7217,-1.7217,0,0,-1.7274,-1.7243,-1.7222,-1.7252,-1.7244,-1.7219,-1.7238,-1.7211,-1.7211,-1.7205,-1.7167,-1.7163,-1.7191,-1.7181,-1.7155,-1.7209,-1.7169,-1.7175,-1.7214,-1.7226,-1.7235,-1.7237,-1.7101,0,0,0,0,0,-1.721,-1.7247,-1.7228,-1.7228,-1.7221,-1.7229,-1.7228,-1.7198,-1.717,-1.7187,-1.7169,-1.7137,-1.7159,-1.7136,-1.7137,-1.7166,-1.7189,-1.7194,-1.7199,-1.7259,-1.7271,-1.7282,0,0,0,0,0,0,-1.721,-1.7211,-1.7227,-1.7204,-1.7202,-1.7228,-1.7175,-1.7168,-1.7168,-1.7162,-1.7141,-1.7136,-1.711,-1.7133,-1.7135,-1.7162,-1.71,-1.7191,-1.7195,-1.7199,-1.7263,-1.7273,-1.7282,0,0,0,0,0,-1.721,-1.721,-1.7206,-1.7203,-1.7201,-1.7169,-1.7173,-1.7167,-1.7166,-1.7137,-1.7131,-1.7143,-1.7112,-1.7111,-1.7134,-1.7162,-1.7099,-1.71,-1.7194,-1.7197,-1.72,-1.7268,0,0,0,0,0,0,-1.721,-1.7204,-1.7205,-1.7204,-1.7186,-1.7167,-1.7163,-1.7166,-1.7141,-1.7136,-1.7137,-1.7132,-1.7114,-1.7113,-1.7112,-1.7164,-1.7098,-1.7099,-1.7099,-1.7196,-1.7199,-1.7201,0,0,0,0,0,0,-1.7204,-1.7203,-1.7204,-1.7185,-1.7181,-1.7165,-1.7162,-1.7176,-1.7142,-1.7142,-1.7138,-1.7135,-1.7114,-1.7114,-1.7113,-1.7137,-1.7097,-1.7098,-1.7098,-1.7099,-1.7198,-1.7201,0,0,0,0,0,0,-1.7203,-1.7203,-1.7185,-1.7182,-1.7178,-1.7157,-1.7177,-1.7172,-1.7125,-1.7144,-1.712,-1.7118,-1.7116,-1.7115,-1.7115,-1.7139,-1.7137,-1.7097,-1.7098,-1.7098,-1.7098,0,0,0,0,0,0,0,-1.7203,-1.7213,-1.7215,-1.7179,-1.7176,-1.7189,-1.7188,-1.7188,-1.7124,-1.7122,-1.712,-1.7119,-1.7093,-1.7094,-1.7095,-1.714,0,0,-1.7097,-1.7097,0,0,0,0,0,0,0,0,-1.7212,-1.7213,-1.7215,-1.7215,-1.7214,-1.7188,-1.7188,-1.7188,-1.7124,-1.7122,-1.7121,-1.7119,-1.7093,-1.7094,-1.7095,0,0,0,0,0,0,0,0,0,0,0,0,0,0,0,-1.7215,-1.7215,0,-1.7188,-1.7188,-1.7188,-1.7124,-1.7123,-1.7121,-1.712,-1.7093,-1.7094,-1.7094,0,0,0,0,0,0,0,0,0,0,0,0,0,0,0,0,0,0,0,0,0,0,0,0,0,0,0,0,0,0,0,0,0,0,0,0,0,0,0,0,0,0,0,0,0,0,0,0,0,0,0,0,0,0,0,0,0,0,0,0,0,0,0,0,0,0,0,0,0]}]]]